Left ArrowRight Arrow

Hourly Observations for June 17, 2024

Temp ( °F °C ) Dew Point ( °F °C ) Humidity (%) Winds ( mph kmh ) Pressure ( in mb ) Visibility ( mi km ) Precip ( " mm )
12:15 am 00:15 Clear 75 24 64 18 69 69 S 9 15 30.18 1022 10 16 0.00 0.00
12:35 am 00:35 Clear 73 23 64 18 73 73 S 9 15 30.17 1022 10 16 0.00 0.00
12:55 am 00:55 Clear 73 23 64 18 73 73 S 9 15 30.17 1022 10 16 0.00 0.00
1:15 am 01:15 Clear 73 23 63 17 69 69 S 10 17 30.18 1022 10 16 0.00 0.00
1:35 am 01:35 Clear 72 22 63 17 73 73 S 7 11 30.18 1022 10 16 0.00 0.00
1:55 am 01:55 Clear 72 22 63 17 73 73 S 6 9 30.18 1022 10 16 0.00 0.00
2:15 am 02:15 Clear 72 22 63 17 73 73 S 7 11 30.18 1022 10 16 0.00 0.00
2:35 am 02:35 Clear 72 22 63 17 73 73 S 7 11 30.18 1022 10 16 0.00 0.00
2:55 am 02:55 Clear 72 22 61 16 69 69 S 7 11 30.18 1022 10 16 0.00 0.00
3:15 am 03:15 Clear 70 21 61 16 73 73 S 7 11 30.18 1022 10 16 0.00 0.00
3:35 am 03:35 Clear 70 21 61 16 73 73 S 7 11 30.17 1022 10 16 0.00 0.00
3:55 am 03:55 Clear 70 21 61 16 73 73 S 8 13 30.17 1022 10 16 0.00 0.00
4:15 am 04:15 Clear 70 21 61 16 73 73 S 9 15 30.17 1022 10 16 0.00 0.00
4:35 am 04:35 Clear 70 21 61 16 73 73 S 9 15 30.18 1022 10 16 0.00 0.00
4:55 am 04:55 Clear 70 21 61 16 73 73 S 7 11 30.17 1022 10 16 0.00 0.00
5:15 am 05:15 Clear 68 20 61 16 78 78 S 6 9 30.18 1022 10 16 0.00 0.00
5:35 am 05:35 Partly Cloudy 68 20 61 16 78 78 S 6 9 30.18 1022 10 16 0.00 0.00
5:55 am 05:55 Partly Cloudy 68 20 61 16 78 78 S 7 11 30.18 1022 10 16 0.00 0.00
6:15 am 06:15 Partly Cloudy 68 20 61 16 78 78 S 6 9 30.18 1022 10 16 0.00 0.00
6:35 am 06:35 Partly Cloudy 68 20 61 16 78 78 S 6 9 30.18 1022 10 16 0.00 0.00
6:55 am 06:55 Sunny 68 20 61 16 78 78 S 7 11 30.18 1022 10 16 0.00 0.00
7:15 am 07:15 Sunny 68 20 63 17 83 83 S 6 9 30.19 1022 10 16 0.00 0.00
7:35 am 07:35 Sunny 70 21 63 17 78 78 S 7 11 30.19 1022 10 16 0.00 0.00
7:55 am 07:55 Partly Cloudy 70 21 63 17 78 78 S 9 15 30.19 1022 10 16 0.00 0.00
8:15 am 08:15 Sunny 72 22 63 17 73 73 S 9 15 30.19 1022 10 16 0.00 0.00
8:35 am 08:35 Sunny 72 22 64 18 78 78 S 9 15 30.20 1023 10 16 0.00 0.00
8:55 am 08:55 Mostly Cloudy 73 23 64 18 73 73 SSW 8 13 30.20 1023 10 16 0.00 0.00
9:15 am 09:15 Cloudy 73 23 64 18 73 73 S 5 7 30.20 1023 10 16 0.00 0.00
9:35 am 09:35 Cloudy 73 23 64 18 73 73 SSW 6 9 30.20 1023 10 16 0.00 0.00
9:55 am 09:55 Mostly Cloudy 75 24 64 18 69 69 S 6 9 30.19 1022 10 16 0.00 0.00
10:15 am 10:15 Partly Cloudy 77 25 64 18 65 65 SSE 8 13 30.18 1022 10 16 0.00 0.00
10:35 am 10:35 Sunny 79 26 66 19 65 65 S 3 6 30.18 1022 10 16 0.00 0.00
10:55 am 10:55 Sunny 79 26 66 19 65 65 SSE 10 17 30.17 1022 10 16 0.00 0.00
11:15 am 11:15 Sunny 81 27 68 20 66 66 S 6 9 30.17 1022 10 16 0.00 0.00
11:55 am 11:55 Partly Cloudy 82 28 68 20 62 62 SSE 7 11 30.16 1021 10 16 0.00 0.00
12:15 pm 12:15 Sunny 84 29 70 21 62 62 SSW 7 11 30.16 1021 10 16 0.00 0.00
12:35 pm 12:35 Sunny 84 29 70 21 62 62 S 8 13 30.15 1021 10 16 0.00 0.00
12:55 pm 12:55 Sunny 86 30 70 21 59 59 SSW 7 11 30.15 1021 10 16 0.00 0.00
1:15 pm 13:15 Sunny 88 31 70 21 55 55 Calm 30.15 1021 10 16 0.00 0.00
1:35 pm 13:35 Sunny 88 31 72 22 59 59 S 9 15 30.14 1021 10 16 0.00 0.00
1:55 pm 13:55 Sunny 88 31 72 22 59 59 S 5 7 30.13 1020 10 16 0.00 0.00
2:15 pm 14:15 Sunny 88 31 70 21 55 55 Calm 30.13 1020 10 16 0.00 0.00
2:35 pm 14:35 Sunny 90 32 72 22 56 56 SW 5 7 30.13 1020 10 16 0.00 0.00
2:55 pm 14:55 Sunny 90 32 72 22 56 56 S 7 11 30.13 1020 10 16 0.00 0.00
3:15 pm 15:15 Sunny 91 33 72 22 53 53 SSW 7 11 30.11 1020 10 16 0.00 0.00
3:35 pm 15:35 Sunny 91 33 72 22 53 53 SW 8 13 30.11 1020 10 16 0.00 0.00
3:55 pm 15:55 Sunny 91 33 70 21 49 49 S 8 13 30.10 1019 10 16 0.00 0.00
4:15 pm 16:15 Sunny 91 33 70 21 49 49 SSW 5 7 30.10 1019 10 16 0.00 0.00
4:35 pm 16:35 Sunny 91 33 70 21 49 49 S 8 13 30.09 1019 10 16 0.00 0.00
4:55 pm 16:55 Sunny 91 33 70 21 49 49 Calm 30.08 1019 10 16 0.00 0.00
5:15 pm 17:15 Partly Cloudy 91 33 72 22 53 53 S 7 11 30.08 1019 10 16 0.00 0.00
5:35 pm 17:35 Partly Cloudy 91 33 72 22 53 53 S 9 15 30.07 1018 10 16 0.00 0.00
5:55 pm 17:55 Sunny 91 33 73 23 56 56 SSW 8 13 30.07 1018 10 16 0.00 0.00
6:15 pm 18:15 Sunny 91 33 72 22 53 53 S 9 15 30.07 1018 10 16 0.00 0.00
6:35 pm 18:35 Sunny 90 32 72 22 56 56 S 8 13 30.08 1018 10 16 0.00 0.00
6:55 pm 18:55 Sunny 90 32 73 23 59 59 S 9 15 30.09 1019 10 16 0.00 0.00
7:15 pm 19:15 Sunny 90 32 73 23 59 59 S 10 17 30.11 1019 10 16 0.00 0.00
7:35 pm 19:35 Sunny 88 31 73 23 63 63 S 8 13 30.12 1020 10 16 0.00 0.00
7:55 pm 19:55 Sunny 88 31 73 23 63 63 S 9 15 30.12 1020 10 16 0.00 0.00
8:15 pm 20:15 Sunny 88 31 73 23 63 63 S 8 13 30.12 1020 10 16 0.00 0.00
8:35 pm 20:35 Sunny 86 30 73 23 66 66 S 9 15 30.12 1020 10 16 0.00 0.00
8:55 pm 20:55 Clear 86 30 73 23 66 66 S 7 11 30.12 1020 10 16 0.00 0.00
9:15 pm 21:15 Clear 84 29 73 23 70 70 S 9 15 30.13 1020 10 16 0.00 0.00
9:35 pm 21:35 Clear 84 29 73 23 70 70 S 12 19 30.13 1020 10 16 0.00 0.00
9:55 pm 21:55 Clear 82 28 73 23 74 74 S 8 13 30.13 1020 10 16 0.00 0.00
10:15 pm 22:15 Clear 82 28 73 23 74 74 S 9 15 30.13 1020 10 16 0.00 0.00
10:35 pm 22:35 Clear 82 28 73 23 74 74 S 9 15 30.13 1020 10 16 0.00 0.00
10:55 pm 22:55 Clear 81 27 73 23 79 79 S 7 11 30.15 1021 10 16 0.00 0.00
11:15 pm 23:15 Clear 81 27 73 23 79 79 S 8 13 30.15 1021 10 16 0.00 0.00
11:35 pm 23:35 Clear 81 27 72 22 74 74 S 7 11 30.15 1021 10 16 0.00 0.00
11:55 pm 23:55 Clear 79 26 72 22 79 79 S 8 13 30.16 1021 10 16 0.00 0.00

Powered by Vaisala Xweather